sat.trackr.live / text

‹ back to catalog

QIANFAN-106

NORAD 66048 · 2025-233R

PAYLOAD ACTIVE UNKNOWN

§ Identity

Operator
Country
PRC
Launch date
2025-10-17
Launch site
TAISC
Launch vehicle
Mass (kg)
RCS (m²)

External: N2YO · Heavens-Above · Gunter

§ Orbital elements

Epoch: 2026-09-20T15:46:09.159744Z

Period
106.59 min
Inclination
89.0048°
Eccentricity
0.0001639
Mean motion
13.51030311 rev/d
Perigee alt
1,067.2 km
Apogee alt
1,069.7 km
Semi-major
7,446.6 km
B*
1.0652e-4
RAAN
33.4968°
Arg perigee
110.9475°
Mean anomaly
249.1852°
Rev number
4,607

§ Raw data

QIANFAN-1061 66048U 25233R   26263.65705046  .00000081  00000+0  10652-3 0  99962 66048  89.0048  33.4968 0001639 110.9475 249.1852 13.51030311 46070

JSON: /api/v1/satellites/66048 · /tle

For live sub-satellite position, see the globe view (requires WebGL).

§ Visibility from observer

Set your observer location to see the next 7 days of passes ≥ 10°. The values pass through the URL so the page stays shareable.

No JS? Fill the form by hand. The geolocation button needs JavaScript.